NEA1136 KMCO-KLAX

Flight info

Callsign NEA1136
Flight time N/A
Altitude 34000
Route OSPRY1 REMIS Y280 LEV J86 ELP J50 SSO J4 WLVRN ESTWD HLYWD1
Aircraft B38M/M-SDE1FGHILORVWXY/HB1

Departure

Time 2026-05-08 06:09
Airport Orlando International Airport (KMCO)

Arrival

Time N/A
Airport Los Angeles International Airport (KLAX)
Time Latitude Longitude Altitude Speed Heading
2026-05-08 05:34 28.42792 -81.30003 97 ft 0 kts 306°
2026-05-08 05:58 28.42789 -81.29997 98 ft 2 kts 306°
2026-05-08 05:58 28.42778 -81.29981 97 ft 3 kts 306°
2026-05-08 05:58 28.42770 -81.29957 97 ft 3 kts 262°
2026-05-08 05:58 28.42777 -81.29933 96 ft 3 kts 246°
2026-05-08 05:59 28.42792 -81.29914 96 ft 3 kts 201°
2026-05-08 05:59 28.42805 -81.29911 97 ft 0 kts 187°
2026-05-08 06:03 28.42802 -81.29911 96 ft 2 kts 182°
2026-05-08 06:03 28.42764 -81.29895 101 ft 11 kts 157°
2026-05-08 06:04 28.42696 -81.29882 98 ft 17 kts 178°
2026-05-08 06:04 28.42599 -81.29840 97 ft 15 kts 106°
2026-05-08 06:04 28.42514 -81.29796 97 ft 15 kts 178°
2026-05-08 06:04 28.42404 -81.29795 99 ft 18 kts 179°
2026-05-08 06:05 28.42261 -81.29793 98 ft 23 kts 179°
2026-05-08 06:05 28.42087 -81.29790 97 ft 26 kts 179°
2026-05-08 06:05 28.41903 -81.29789 98 ft 27 kts 179°
2026-05-08 06:05 28.41712 -81.29787 99 ft 28 kts 180°
2026-05-08 06:06 28.41524 -81.29786 97 ft 26 kts 179°
2026-05-08 06:06 28.41339 -81.29784 98 ft 27 kts 179°
2026-05-08 06:06 28.41149 -81.29782 99 ft 28 kts 179°
2026-05-08 06:06 28.40955 -81.29780 97 ft 25 kts 179°
2026-05-08 06:07 28.40827 -81.29757 97 ft 14 kts 128°
2026-05-08 06:07 28.40820 -81.29675 97 ft 1 kts 90°
2026-05-08 06:07 28.40820 -81.29674 97 ft 0 kts 90°
2026-05-08 06:08 28.40820 -81.29670 98 ft 2 kts 90°
2026-05-08 06:08 28.40820 -81.29629 98 ft 10 kts 90°
2026-05-08 06:08 28.40874 -81.29560 98 ft 19 kts
2026-05-08 06:09 28.41264 -81.29564 100 ft 97 kts 359°
2026-05-08 06:09 28.42187 -81.29575 97 ft 166 kts 359°
2026-05-08 06:09 28.43471 -81.29545 549 ft 196 kts
2026-05-08 06:09 28.44852 -81.29500 1518 ft 199 kts 354°
2026-05-08 06:10 28.46248 -81.29700 2440 ft 213 kts 348°
2026-05-08 06:10 28.47811 -81.30048 2920 ft 247 kts 346°
2026-05-08 06:10 28.49535 -81.30441 3768 ft 255 kts 346°
2026-05-08 06:10 28.51299 -81.30857 4658 ft 264 kts 345°
2026-05-08 06:11 28.53049 -81.31516 5614 ft 265 kts 337°
2026-05-08 06:11 28.54782 -81.32261 6581 ft 268 kts 335°
2026-05-08 06:11 28.56441 -81.33232 7467 ft 269 kts 329°
2026-05-08 06:11 28.58091 -81.34272 8336 ft 273 kts 325°
2026-05-08 06:12 28.59362 -81.35815 9233 ft 268 kts 294°
2026-05-08 06:12 28.59754 -81.37875 10058 ft 271 kts 269°
2026-05-08 06:12 28.59707 -81.40048 10703 ft 281 kts 269°
2026-05-08 06:12 28.59687 -81.42348 11095 ft 301 kts 269°
2026-05-08 06:13 28.59665 -81.44802 11425 ft 320 kts 269°
2026-05-08 06:13 28.59633 -81.47403 11809 ft 335 kts 266°
2026-05-08 06:13 28.59084 -81.49986 12459 ft 339 kts 245°
2026-05-08 06:13 28.57728 -81.52194 13224 ft 344 kts 230°
2026-05-08 06:14 28.56155 -81.54249 13907 ft 347 kts 232°
2026-05-08 06:14 28.54586 -81.56342 14555 ft 348 kts 232°
2026-05-08 06:14 28.53003 -81.58438 15155 ft 351 kts 232°
2026-05-08 06:14 28.51402 -81.60551 15771 ft 353 kts 232°
2026-05-08 06:15 28.49792 -81.62672 16327 ft 356 kts 232°
2026-05-08 06:15 28.48188 -81.64783 16919 ft 358 kts 232°
2026-05-08 06:15 28.46535 -81.66958 17504 ft 361 kts 232°
2026-05-08 06:15 28.44921 -81.69071 18346 ft 354 kts 232°
2026-05-08 06:16 28.43319 -81.71156 19103 ft 349 kts 233°
2026-05-08 06:16 28.41704 -81.73272 19587 ft 352 kts 233°
2026-05-08 06:16 28.40113 -81.75361 20076 ft 355 kts 233°
2026-05-08 06:16 28.38494 -81.77488 20576 ft 357 kts 233°
2026-05-08 06:17 28.35206 -81.81808 21571 ft 362 kts 233°
2026-05-08 06:17 28.33554 -81.83978 22042 ft 364 kts 233°
2026-05-08 06:17 28.31914 -81.86130 22518 ft 366 kts 233°
2026-05-08 06:18 28.30380 -81.88425 22969 ft 364 kts 245°
2026-05-08 06:18 28.29532 -81.91096 23418 ft 362 kts 260°
2026-05-08 06:18 28.29109 -81.93923 23791 ft 365 kts 262°
2026-05-08 06:18 28.28729 -81.96777 24171 ft 366 kts 263°
2026-05-08 06:19 28.28378 -81.99647 24566 ft 368 kts 263°
2026-05-08 06:19 28.28039 -82.02532 24951 ft 370 kts 263°
2026-05-08 06:19 28.27710 -82.05429 25326 ft 372 kts 264°
2026-05-08 06:19 28.27382 -82.08347 25701 ft 374 kts 264°